Temp
12 12 12 12 12 12 13 13 13 13 14 14 14 14 15 15 15 15 16 16 16 16 16 16 16 16 17 17 17 17 16 19 20 19 19 19 18 17 16 15 15 14 14 14 14
11 12 12 12 12 12 13 13 13 14 14 14 14 15 15 15 15 16 15 15 16 16 16 16 15 16 16 17 18 17 17 17 19 19 19 18 18 18 17 14 14 15 15 14 14
11 12 12 12 12 13 13 13 13 14 14 14 15 15 15 15 15 15 16 16 16 16 16 16 15 15 16 18 18 15 16 19 19 18 18 19 18 18 17 16 14 15 15 15 14
11 12 12 12 12 13 13 13 13 14 14 14 14 15 15 15 14 15 16 16 16 16 16 16 16 16 17 18 18 18 18 19 18 18 18 18 18 19 18 16 15 15 15 15 14
11 12 12 12 12 13 13 13 13 13 14 14 14 14 15 15 14 15 16 16 16 16 16 14 15 16 18 18 18 18 18 18 18 18 18 18 18 18 18 16 15 15 15 14 13
11 12 12 12 12 13 13 13 13 13 14 14 14 14 14 14 14 15 16 16 16 16 14 14 16 16 17 17 18 18 18 18 18 18 18 18 18 18 17 16 15 14 13 12 11
11 11 12 12 12 13 13 13 13 13 14 14 14 14 14 13 14 15 15 16 16 16 14 14 14 15 17 17 17 17 18 18 19 19 18 18 18 17 17 16 15 14 13 12 12
10 11 11 12 12 12 13 13 13 13 14 14 14 14 14 15 14 15 15 15 15 16 16 16 16 15 16 17 17 18 18 19 20 19 19 18 17 17 17 16 15 14 13 13 12
10 10 11 12 12 12 12 13 13 13 13 13 14 14 13 14 15 15 15 14 15 15 16 16 16 15 17 17 18 19 19 20 20 19 19 19 19 18 18 17 15 14 14 13 12
10 10 11 11 12 12 12 13 13 13 13 13 14 14 15 14 14 15 15 15 15 15 15 16 16 16 17 18 19 20 20 21 20 20 19 19 19 19 17 17 16 14 13 12 11
9 10 11 11 11 12 12 12 12 12 13 14 12 14 13 13 15 15 15 15 14 14 15 15 16 17 18 19 19 18 19 20 20 19 18 19 19 19 18 17 17 15 14 13 11
9 10 10 11 11 11 11 11 11 12 13 14 14 13 13 13 14 15 14 14 14 15 15 16 17 18 18 17 18 18 19 19 19 19 18 18 19 19 19 18 17 16 15 14 12
9 9 10 10 11 11 11 11 12 12 12 14 13 13 13 14 14 14 14 14 15 15 16 17 18 17 17 17 17 18 18 19 19 19 19 19 19 19 19 18 17 17 16 15 12
9 9 10 10 10 11 10 11 11 11 11 14 14 14 13 13 14 15 14 14 15 16 16 17 17 17 17 17 17 18 19 19 18 18 19 20 20 20 19 18 17 17 16 15 14
8 9 9 9 9 9 10 11 11 11 14 16 14 14 14 14 16 15 14 14 15 16 17 17 17 17 17 17 18 18 18 18 18 18 19 19 20 19 19 19 18 17 16 15 14
8 8 9 9 9 9 10 10 10 10 14 15 14 14 14 14 15 15 14 14 15 16 16 17 17 17 17 17 17 17 17 17 18 18 19 20 20 20 19 18 18 17 16 15 14
7 8 8 9 9 10 10 9 9 12 14 16 15 15 15 15 15 15 15 14 15 15 16 16 17 16 16 17 17 17 17 18 19 19 18 17 19 20 19 18 17 17 16 15 14
7 8 8 8 9 9 9 8 10 13 14 16 16 15 15 15 15 16 15 15 15 16 17 17 18 17 17 17 18 17 17 18 18 19 17 17 16 17 19 18 17 15 16 15 13
7 7 8 8 8 8 8 8 11 13 15 15 15 16 16 16 16 16 15 15 16 15 17 18 18 18 17 17 17 17 18 18 18 19 19 19 18 18 17 17 17 16 15 14 13
6 7 7 8 8 8 8 9 12 13 13 14 15 15 16 16 16 16 16 16 16 16 16 17 18 18 17 16 17 17 17 18 18 18 18 20 15 14 14 13 16 15 15 14 13
6 6 7 7 7 7 7 9 11 12 12 12 13 15 16 16 17 16 16 16 16 17 16 16 16 18 17 16 17 17 17 17 18 18 19 19 17 16 16 16 16 15 14 15 13
5 5 6 6 6 7 7 8 11 12 11 11 12 13 15 15 16 16 17 17 16 17 16 16 16 17 17 17 17 17 18 17 17 18 18 18 17 16 16 16 16 15 15 15 13
5 5 5 5 6 6 7 9 10 11 11 11 12 12 13 13 14 15 16 15 16 16 16 16 16 16 16 17 18 17 17 17 17 17 17 17 16 15 15 15 16 15 15 15 13
5 6 5 6 7 7 8 9 10 10 10 11 12 12 12 12 13 13 15 14 14 14 15 15 15 16 17 17 16 16 17 17 17 17 17 18 16 13 13 15 15 15 15 15 13
4 5 5 7 7 7 7 9 10 10 9 10 11 11 11 12 12 13 13 14 14 13 13 14 14 15 16 16 17 16 16 16 17 17 17 17 16 16 14 12 9 15 15 15 14
1 2 4 5 5 6 7 8 8 9 10 9 9 11 11 11 12 13 13 13 14 13 13 13 13 14 14 15 16 17 17 17 17 17 17 17 17 14 12 12 10 14 15 15 14
3 3 2 4 5 6 7 7 8 8 9 9 9 10 11 11 11 11 11 12 11 12 13 13 13 13 14 15 16 17 17 17 17 17 17 17 16 13 12 11 11 13 15 15 13
Height
3172 3173 3173 3174 3174 3175 3174 3174 3175 3175 3175 3175 3176 3176 3176 3175 3176 3175 3176 3176 3176 3176 3177 3179 3180 3182 3182 3184 3187 3187 3181 3180 3182 3184 3186 3186 3186 3189 3193 3194 3192 3191 3189 3187 3186
3172 3173 3173 3174 3175 3174 3174 3174 3175 3176 3176 3175 3177 3177 3177 3177 3176 3176 3177 3176 3176 3177 3178 3179 3182 3183 3184 3188 3190 3184 3188 3184 3186 3188 3188 3187 3188 3189 3185 3190 3192 3189 3189 3187 3187
3171 3172 3173 3174 3174 3174 3174 3174 3175 3176 3175 3176 3177 3178 3178 3178 3178 3177 3178 3178 3177 3177 3179 3179 3181 3184 3185 3189 3189 3195 3189 3186 3188 3189 3189 3188 3188 3189 3188 3185 3186 3189 3188 3187 3187
3169 3171 3172 3173 3173 3174 3174 3175 3175 3175 3175 3176 3177 3178 3179 3179 3183 3178 3178 3179 3179 3179 3180 3181 3184 3186 3188 3189 3190 3192 3190 3189 3190 3190 3190 3190 3189 3190 3191 3189 3192 3189 3188 3187 3187
3168 3169 3170 3171 3172 3172 3174 3174 3174 3175 3175 3175 3176 3177 3178 3180 3179 3178 3179 3179 3180 3180 3180 3185 3188 3188 3188 3189 3190 3190 3190 3191 3190 3190 3190 3191 3190 3190 3192 3189 3190 3188 3187 3187 3188
3165 3167 3168 3169 3170 3171 3172 3173 3173 3174 3174 3175 3176 3176 3178 3180 3177 3178 3179 3180 3180 3181 3183 3185 3189 3189 3188 3189 3190 3189 3190 3190 3189 3190 3190 3190 3188 3189 3190 3190 3190 3188 3187 3187 3188
3163 3164 3166 3167 3168 3169 3171 3171 3172 3173 3173 3174 3175 3176 3177 3178 3177 3177 3179 3179 3180 3181 3186 3184 3186 3187 3190 3190 3190 3190 3190 3189 3188 3189 3190 3188 3191 3191 3190 3190 3190 3189 3188 3188 3189
3160 3161 3163 3164 3166 3167 3169 3170 3171 3172 3173 3173 3174 3175 3175 3175 3176 3177 3178 3179 3180 3181 3182 3183 3184 3185 3189 3190 3190 3190 3189 3186 3182 3186 3188 3189 3186 3185 3191 3189 3189 3190 3189 3189 3188
3157 3158 3159 3161 3163 3165 3166 3168 3170 3170 3171 3172 3173 3174 3175 3174 3175 3176 3177 3179 3180 3181 3182 3183 3184 3186 3189 3190 3189 3187 3185 3182 3183 3184 3187 3188 3187 3188 3189 3189 3188 3190 3190 3189 3187
3154 3155 3156 3158 3160 3162 3164 3166 3167 3168 3170 3171 3172 3176 3174 3174 3172 3175 3176 3178 3179 3180 3182 3183 3184 3186 3188 3188 3183 3182 3181 3179 3181 3184 3185 3186 3185 3185 3185 3188 3186 3187 3188 3189 3187
3150 3152 3154 3155 3157 3159 3162 3165 3168 3168 3166 3169 3172 3172 3172 3172 3172 3174 3175 3177 3178 3180 3183 3184 3186 3185 3184 3184 3183 3182 3182 3180 3181 3184 3185 3186 3184 3186 3184 3185 3186 3184 3184 3186 3187
3147 3149 3151 3153 3155 3157 3159 3162 3161 3164 3163 3165 3167 3169 3171 3170 3171 3172 3175 3177 3178 3180 3182 3185 3182 3182 3182 3181 3183 3185 3184 3183 3183 3183 3185 3185 3183 3183 3183 3182 3185 3183 3182 3182 3184
3143 3145 3148 3150 3152 3155 3156 3157 3160 3161 3161 3162 3163 3165 3168 3169 3169 3172 3173 3175 3178 3180 3181 3180 3181 3180 3181 3183 3184 3184 3183 3182 3181 3181 3182 3181 3179 3177 3178 3177 3180 3182 3180 3180 3182
3140 3142 3145 3147 3152 3152 3154 3154 3158 3160 3160 3160 3160 3161 3164 3166 3167 3172 3171 3176 3177 3178 3179 3179 3179 3179 3181 3182 3183 3182 3179 3180 3181 3182 3178 3175 3173 3170 3174 3177 3177 3178 3180 3179 3180
3136 3138 3141 3144 3148 3149 3149 3153 3157 3160 3159 3152 3156 3158 3160 3163 3167 3168 3170 3173 3175 3177 3178 3177 3178 3178 3179 3180 3180 3181 3180 3181 3180 3179 3178 3173 3170 3168 3169 3174 3172 3175 3177 3179 3178
3132 3135 3138 3141 3144 3146 3149 3152 3156 3161 3152 3151 3151 3154 3158 3160 3164 3167 3169 3171 3174 3175 3175 3174 3175 3176 3177 3178 3179 3180 3180 3179 3178 3176 3172 3171 3170 3165 3165 3168 3174 3173 3175 3178 3177
3129 3131 3134 3138 3140 3142 3146 3150 3156 3151 3148 3147 3149 3152 3154 3157 3161 3164 3166 3167 3170 3173 3173 3173 3173 3174 3175 3176 3177 3178 3179 3176 3173 3167 3169 3169 3166 3164 3165 3165 3169 3172 3173 3175 3175
3125 3128 3131 3134 3137 3141 3144 3150 3150 3145 3143 3145 3145 3147 3150 3154 3157 3160 3163 3164 3167 3169 3168 3168 3168 3169 3171 3173 3174 3176 3177 3174 3170 3164 3167 3171 3171 3169 3165 3165 3166 3168 3171 3172 3174
3122 3124 3127 3131 3135 3138 3142 3145 3143 3140 3144 3142 3145 3145 3147 3150 3153 3156 3159 3161 3163 3166 3168 3162 3161 3161 3168 3171 3173 3173 3173 3174 3172 3167 3164 3163 3165 3166 3168 3171 3168 3169 3169 3170 3171
3120 3121 3124 3128 3131 3135 3138 3138 3140 3143 3141 3141 3142 3145 3144 3146 3149 3151 3154 3158 3160 3162 3165 3164 3164 3163 3166 3169 3171 3171 3172 3172 3169 3167 3164 3159 3160 3159 3168 3172 3167 3168 3170 3168 3169
3118 3120 3121 3125 3128 3131 3130 3133 3136 3140 3141 3143 3143 3143 3141 3142 3144 3148 3151 3154 3156 3158 3161 3163 3165 3163 3164 3167 3167 3168 3168 3169 3168 3164 3160 3157 3158 3159 3163 3158 3167 3165 3167 3166 3167
3117 3120 3121 3122 3126 3126 3128 3131 3136 3139 3138 3141 3142 3142 3142 3142 3139 3145 3147 3149 3151 3155 3157 3161 3163 3162 3161 3162 3162 3163 3163 3164 3165 3163 3160 3159 3164 3166 3166 3163 3167 3162 3162 3164 3165
3115 3122 3118 3120 3122 3124 3128 3130 3133 3136 3138 3139 3142 3142 3141 3142 3142 3142 3146 3144 3147 3153 3154 3158 3160 3160 3161 3162 3159 3160 3162 3162 3161 3161 3159 3160 3158 3157 3157 3160 3167 3163 3163 3162 3162
3116 3120 3119 3117 3119 3123 3125 3127 3130 3131 3135 3138 3140 3141 3142 3142 3144 3144 3145 3147 3148 3151 3153 3156 3156 3157 3156 3156 3158 3157 3158 3159 3158 3158 3156 3155 3154 3155 3160 3155 3152 3170 3166 3160 3159
3114 3118 3117 3120 3119 3120 3122 3124 3127 3130 3133 3135 3137 3139 3141 3143 3144 3144 3143 3148 3146 3149 3152 3155 3155 3156 3155 3155 3155 3154 3156 3155 3153 3154 3154 3153 3151 3151 3147 3139 3147 3166 3165 3157 3158
3111 3112 3112 3115 3115 3117 3120 3122 3124 3128 3131 3132 3135 3137 3140 3141 3142 3143 3144 3144 3145 3148 3150 3153 3154 3156 3154 3153 3152 3151 3150 3150 3150 3150 3149 3148 3149 3145 3146 3157 3151 3164 3158 3156 3160
3106 3108 3110 3113 3116 3117 3118 3121 3123 3124 3125 3129 3132 3134 3136 3137 3136 3136 3137 3140 3141 3145 3148 3150 3152 3153 3152 3151 3149 3147 3147 3147 3147 3148 3148 3145 3140 3140 3143 3150 3146 3156 3155 3158 3159
Wind_Speed
5 4 4 3 3 3 3 2 2 2 1 1 1 1 1 2 2 1 1 1 1 3 6 8 10 7 5 2 7 10 15 4 9 16 13 9 5 5 7 8 8 8 7 4 10
8 7 6 5 5 5 4 4 4 4 3 3 2 1 0 2 3 0 3 3 0 3 8 12 7 4 2 4 3 12 2 7 10 6 6 6 2 2 2 11 7 8 4 7 10
9 9 9 8 7 6 5 5 5 5 5 5 4 4 3 1 4 1 3 3 1 4 7 14 13 3 6 4 2 6 10 10 7 6 4 8 4 5 6 8 14 5 7 8 8
12 12 11 10 9 8 7 6 5 6 5 5 5 6 5 5 1 6 4 2 3 5 9 12 12 1 1 2 3 2 2 3 3 4 4 5 2 6 6 10 5 6 7 6 5
14 14 13 11 11 10 9 7 6 6 6 6 5 5 6 6 11 7 6 3 2 5 12 4 3 2 5 5 3 2 2 2 3 4 4 4 4 3 1 3 4 5 5 1 1
16 15 15 13 12 12 11 9 8 7 7 6 6 5 7 3 14 10 8 7 2 5 1 5 2 9 4 5 6 4 5 6 6 5 6 3 6 3 7 3 6 6 7 9 11
16 16 16 15 14 13 12 11 10 8 8 8 7 6 7 9 9 8 9 9 6 5 2 8 7 9 3 2 8 6 6 9 10 4 4 5 13 6 4 5 6 9 11 13 13
17 17 17 16 17 15 13 12 12 11 10 8 8 8 7 8 9 7 8 7 7 7 7 5 5 8 7 5 7 8 9 13 13 5 2 5 6 8 3 7 7 9 10 15 15
16 18 18 18 19 17 15 14 12 12 11 9 9 9 7 7 9 9 7 5 7 7 7 6 5 5 6 8 9 11 13 12 9 3 6 4 6 6 2 6 6 9 11 16 15
16 16 17 17 19 18 17 15 14 13 12 10 8 7 11 6 10 9 8 8 7 6 4 6 5 6 8 12 17 10 11 8 5 3 2 5 5 3 3 4 9 8 11 15 14
17 16 16 16 16 17 16 14 12 11 18 11 6 10 4 10 9 10 9 9 7 6 7 6 8 12 10 12 8 8 9 9 3 4 5 8 7 7 6 3 9 9 13 11 13
18 17 16 16 15 14 13 10 18 16 15 15 18 12 14 11 7 10 11 11 10 9 8 9 11 10 10 5 6 8 9 10 10 6 7 10 11 10 8 5 6 10 13 14 13
20 18 17 16 16 15 14 17 13 14 19 17 17 21 17 15 12 11 14 12 9 10 12 14 4 4 5 6 8 10 11 12 9 5 10 14 17 20 13 11 8 9 12 13 13
19 18 17 16 15 15 11 16 11 10 9 15 18 19 20 14 15 11 17 15 11 12 11 14 13 7 9 11 11 12 11 9 11 11 17 6 16 11 14 10 12 8 10 12 11
17 17 17 15 15 13 20 13 10 7 6 12 18 11 14 23 4 19 18 18 14 12 12 14 13 12 10 10 10 11 5 8 9 13 15 16 13 20 8 6 13 9 6 7 15
16 17 17 17 16 17 12 12 11 8 13 11 15 17 19 23 15 10 20 19 13 13 13 16 5 10 13 11 11 9 9 10 12 16 19 20 15 8 15 5 4 4 4 7 13
16 17 18 17 20 20 16 14 7 14 17 15 15 14 21 20 22 18 21 22 21 16 16 15 17 11 10 11 12 10 10 12 12 15 3 13 14 10 4 11 8 6 2 7 13
15 17 19 19 18 16 18 13 12 14 21 12 12 15 22 22 23 22 19 23 23 19 17 15 19 21 14 14 12 11 14 16 15 13 4 12 9 34 9 5 6 6 7 7 13
13 15 17 19 18 18 21 17 19 17 11 15 14 12 20 22 18 26 22 24 23 22 20 12 14 11 16 10 12 12 16 14 17 24 23 17 10 11 5 1 10 9 9 11 14
10 12 15 18 18 21 24 24 20 10 6 5 13 15 17 22 25 27 22 23 22 22 20 12 8 10 11 11 13 15 16 10 16 14 14 19 8 6 15 7 12 8 10 10 13
6 4 13 14 19 23 26 25 19 7 10 6 11 13 17 11 23 21 21 20 21 22 20 18 8 8 12 10 12 15 13 18 18 23 15 11 2 7 14 11 12 8 10 4 10
9 5 8 11 19 23 23 22 16 13 11 14 11 10 12 12 12 21 19 19 16 20 21 19 14 17 15 10 13 14 13 11 18 15 19 22 6 4 3 9 8 14 9 6 9
15 6 15 13 15 17 16 19 20 16 14 9 12 12 5 5 4 8 7 5 12 16 9 14 18 18 17 17 17 17 16 16 17 16 22 13 11 12 14 8 4 7 3 1 9
10 3 7 14 20 15 15 21 20 16 15 16 13 11 11 10 9 9 8 5 9 9 13 12 14 15 20 4 8 9 17 16 19 18 22 21 6 5 12 17 15 12 2 1 11
8 2 5 3 12 14 12 11 21 16 17 10 16 15 13 11 14 15 9 9 10 15 13 12 13 14 19 20 16 16 15 20 17 19 21 22 16 16 9 25 21 17 1 6 4
5 6 13 9 8 7 18 15 13 20 16 16 15 13 14 14 14 12 14 15 10 10 15 15 17 14 22 21 21 23 19 18 18 15 18 21 22 7 11 7 19 6 6 8 3
10 13 9 4 8 12 11 14 15 16 13 14 13 16 12 15 16 12 6 12 7 11 11 15 14 15 21 19 21 23 18 20 18 17 19 18 11 12 10 5 13 4 5 9 6
Wind_Direction
226 234 240 234 226 230 237 225 216 193 186 124 131 101 67 46 48 61 31 340 252 187 181 173 165 171 207 280 306 280 305 19 74 72 95 79 102 88 83 88 87 79 130 26 14
234 234 242 245 244 238 235 241 232 225 226 218 230 247 262 356 336 236 30 7 235 148 159 144 144 159 319 338 73 53 68 5 77 65 64 87 66 93 265 128 103 89 46 22 24
238 241 241 239 239 238 237 234 242 233 231 236 227 242 246 8 340 307 9 5 82 142 163 155 155 241 275 212 212 41 87 108 76 79 53 23 95 32 84 10 142 10 26 14 33
238 242 243 246 244 240 239 231 237 242 236 233 233 231 233 128 39 280 291 350 55 135 162 141 149 246 209 207 201 215 148 98 92 33 14 2 12 47 43 87 120 307 350 1 17
245 248 250 248 246 245 243 240 235 241 241 233 231 229 221 179 265 276 268 270 56 131 144 139 184 239 242 241 219 275 197 250 321 325 326 337 317 289 53 64 121 290 330 346 212
245 246 249 250 246 247 244 243 242 238 243 234 231 222 214 222 261 246 248 247 208 135 168 144 194 244 235 214 232 304 259 278 286 293 316 333 309 274 189 203 163 194 192 178 186
246 247 247 248 248 246 245 247 248 241 240 238 233 228 224 240 258 238 234 234 224 183 273 224 213 183 347 265 262 267 280 278 256 257 310 299 289 16 172 176 176 177 183 187 197
249 248 246 247 249 247 246 246 250 245 243 237 233 230 218 249 243 240 223 226 227 216 191 221 209 190 254 247 276 262 266 268 251 200 252 270 106 134 203 199 180 188 188 200 207
250 249 248 246 247 250 251 251 251 256 255 248 235 233 240 241 243 239 218 210 237 227 230 222 208 213 256 257 260 232 258 245 161 197 273 311 135 155 148 187 205 204 201 207 210
248 249 249 248 247 248 251 253 256 259 256 250 250 245 261 275 245 235 218 211 218 230 218 225 223 240 236 231 249 302 228 264 213 321 219 279 268 172 141 227 237 219 207 211 216
246 245 246 249 249 249 251 255 267 279 249 224 266 199 266 215 239 218 218 210 209 220 225 243 224 227 234 240 286 302 319 325 1 254 252 275 299 282 208 229 216 234 252 230 221
244 244 240 242 246 245 242 230 247 241 251 229 225 225 226 229 231 227 210 204 207 215 220 219 232 230 244 265 296 284 278 276 272 234 265 269 265 265 241 211 219 231 261 279 220
242 241 240 235 235 239 237 238 254 250 260 244 244 230 227 237 217 228 211 192 211 218 217 224 168 218 253 271 270 264 263 261 289 266 270 258 265 245 233 222 217 218 249 261 214
241 238 236 233 229 230 232 241 240 247 271 254 213 227 215 219 231 204 227 198 206 224 225 233 237 257 252 248 241 262 307 240 270 277 274 321 270 264 205 218 208 201 199 235 251
239 236 233 227 225 205 221 220 221 203 264 234 201 214 205 205 251 205 215 195 216 222 220 232 239 243 247 241 243 243 283 270 265 268 273 267 256 117 243 222 204 176 173 206 239
240 233 231 224 217 224 216 203 187 199 234 180 192 204 193 208 203 210 203 199 218 224 230 231 248 234 236 237 234 237 277 271 265 260 259 263 249 184 147 207 172 175 223 202 221
238 232 227 222 213 209 197 183 200 224 224 194 202 209 203 208 202 201 200 205 207 212 227 234 235 245 229 230 230 237 251 259 241 238 349 34 330 291 89 153 171 157 182 194 218
239 232 227 220 221 198 191 186 227 222 229 228 207 211 206 203 210 210 209 214 215 218 237 217 223 222 222 216 220 232 239 268 300 297 112 228 210 255 194 183 196 150 179 192 199
237 230 227 221 213 201 188 202 211 220 248 225 213 214 211 209 212 209 217 219 219 217 232 258 235 176 209 224 227 237 241 254 277 282 281 258 221 75 48 232 157 148 156 174 190
241 228 222 219 211 200 196 210 220 249 260 196 223 217 222 216 202 207 214 222 222 220 222 241 253 191 208 231 233 236 252 260 242 262 272 278 87 102 200 290 152 175 169 180 179
221 171 229 213 208 204 209 218 217 265 249 238 229 271 235 226 216 217 217 223 220 216 218 228 244 242 176 224 238 224 248 250 267 280 303 294 234 284 263 257 221 174 197 197 178
193 145 247 233 210 212 224 218 221 248 257 228 249 261 239 249 237 213 226 231 213 211 208 220 232 242 236 243 240 234 272 234 244 261 257 274 45 172 236 174 238 161 188 181 200
145 253 280 236 209 217 239 232 232 236 238 237 233 243 273 247 238 212 233 119 161 197 215 214 227 251 250 258 246 231 250 255 259 267 275 292 270 234 203 208 208 178 281 207 191
188 199 248 223 204 236 239 232 221 230 224 235 232 237 237 231 234 234 220 207 207 189 219 225 236 230 255 304 309 300 236 249 253 257 266 261 195 153 229 240 165 233 187 109 215
146 222 204 214 234 234 236 222 225 226 226 223 226 223 225 236 234 231 235 231 258 235 232 222 243 250 256 271 261 238 225 264 235 245 254 269 270 293 294 269 314 200 273 10 253
222 216 213 233 267 221 222 232 227 221 227 232 224 224 229 231 231 235 233 247 221 231 228 224 241 253 265 265 260 257 258 261 267 279 260 268 281 249 303 163 259 220 43 15 286
253 220 210 231 246 227 220 233 226 229 226 222 218 233 228 235 223 223 205 220 202 205 209 219 234 242 259 258 260 260 253 252 257 254 266 277 271 330 292 225 110 240 18 2 352